(392354) = 2010 GM25

Discovered at Kitt Peak on 2010-03-19 by Spacewatch.

Orbit

Orbit type: Main Belt

Note: WebGL enabled browser required.

epoch2022-01-21.0
epoch JD2459600.5
perihelion date2018-10-14.90675
perihelion JD2458406.40675
argument of perihelion (°)71.74004
ascending node (°)149.37031
inclination (°)7.76590
eccentricity0.1654622
perihelion distance (AU)2.1721431
Tisserand w.r.t. Jupiter3.4
ΔV w.r.t. Earth (km/sec)9.6
semimajor axis (AU)2.6028096
mean anomaly (°)280.27120
mean daily motion (°/day)0.23471470
aphelion distance (AU)3.033
period (years)4.2
P-vector [x]-0.74900720
P-vector [y]-0.64742209
P-vector [z]-0.14082913
Q-vector [x]0.65897541
Q-vector [y]-0.70584469
Q-vector [z]-0.25987436
absolute magnitude16.83
phase slope0.15
uncertainty0
referenceMPO 698892
observations used276
oppositions11
arc length (days)6703
first opposition used2003
last opposition used2022
residual rms (arc-secs)0.76
perturbers coarse indicatorM-v
perturbers precise indicator003Ek
first observation date used2003-10-22.0
last observation date used2022-02-27.0
computer namePan
JD of orbit computation2456847.793900
perihelion JD uncertainty (days)9.5850E-05
argument of perihelion uncertainty (°)3.8459E-05
ascending node uncertainty (°)3.1378E-05
inclination uncertainty (°)5.3778E-06
eccentricity uncertainty 4.4306E-07
perihelion distance uncertainty (AU)1.2498E-06
Minimum Orbit Intersection Distances (in AU)
for orbit epoch: 2459600.5, reference: E2022-B04
Mercury1.72627
Venus1.45364
Earth1.18052
Mars0.59224
Jupiter1.97281
Saturn6.15045
Uranus16.0081
Neptune26.8713

Observations

278 total observations over interval: 2003 10 22.271430 – 2022 02 27.175646
These data are available for download (format description).

Date (UT) J2000 RA J2000 Dec Magn Location Ref
2003 10 22.271430 01 26 00.066 -00 52 47.57 21.58 V 645 – Apache Point-Sloan Digital Sky Survey MPS 457458
2003 10 22.274902 01 25 59.891 -00 52 48.78 22.52   645 – Apache Point-Sloan Digital Sky Survey MPS 457458
2006 05 23.35399 16 34 01.07 -07 34 49.0 19.4 V 691 – Steward Observatory, Kitt Peak-Spacewatch MPS 457458
2006 05 23.37130 16 34 00.11 -07 34 46.5 19.4 V 691 – Steward Observatory, Kitt Peak-Spacewatch MPS 457458
2006 05 23.38858 16 33 59.22 -07 34 44.3 19.4 V 691 – Steward Observatory, Kitt Peak-Spacewatch MPS 457458
2010 03 19.40602 14 27 51.30 -04 07 14.1 19.9 V 691 – Steward Observatory, Kitt Peak-Spacewatch MPS 348118
2010 03 19.42369 14 27 51.04 -04 07 06.7 19.9 V 691 – Steward Observatory, Kitt Peak-Spacewatch MPS 348118
2010 03 19.44137 14 27 50.86 -04 06 59.8 19.9 V 691 – Steward Observatory, Kitt Peak-Spacewatch MPS 348118
2010 04 08.05099 14 20 38.65 -01 32 57.1 18.5 R 106 – Crni Vrh MPS 322383
2010 04 08.06715 14 20 38.03 -01 32 49.6 18.9 R 106 – Crni Vrh MPS 322383
2010 04 08.08329 14 20 37.37 -01 32 42.5 18.4 R 106 – Crni Vrh MPS 322383
2010 04 08.09948 14 20 36.78 -01 32 33.7 18.4 R 106 – Crni Vrh MPS 322383
2010 04 08.70635 14 20 14.57 -01 27 34.0 19.6 R D29 – Purple Mountain Observatory, XuYi Station MPS 322383
2010 04 08.72222 14 20 13.99 -01 27 25.0 19.4 R D29 – Purple Mountain Observatory, XuYi Station MPS 322383
2010 04 08.73829 14 20 13.33 -01 27 18.7 20.0 R D29 – Purple Mountain Observatory, XuYi Station MPS 322383
2010 04 08.75446 14 20 12.68 -01 27 10.5 20.1 R D29 – Purple Mountain Observatory, XuYi Station MPS 322383
2010 04 10.22245 14 19 17.00 -01 15 12.1 19.5 V 691 – Steward Observatory, Kitt Peak-Spacewatch MPS 322383
2010 04 10.24014 14 19 16.28 -01 15 03.4 19.6 V 691 – Steward Observatory, Kitt Peak-Spacewatch MPS 322383
2010 04 10.25784 14 19 15.55 -01 14 54.9 19.5 V 691 – Steward Observatory, Kitt Peak-Spacewatch MPS 322383
2010 05 06.29536 13 59 59.89 +01 32 32.4 19.4 V 703 – Catalina Sky Survey MPS 348118
2010 05 06.30104 13 59 59.64 +01 32 34.3 20.0 V 703 – Catalina Sky Survey MPS 348118
2010 05 06.30683 13 59 59.38 +01 32 35.4 19.0 V 703 – Catalina Sky Survey MPS 348118
2010 05 06.31257 13 59 59.10 +01 32 37.3 19.5 V 703 – Catalina Sky Survey MPS 348118
2012 11 14.40971 04 46 32.48 +10 58 32.0 21.1 V G96 – Mt. Lemmon Survey MPS 457458
2012 11 14.41574 04 46 32.16 +10 58 31.1 21.1 V G96 – Mt. Lemmon Survey MPS 457458
2012 11 14.42170 04 46 31.87 +10 58 30.5 20.9 V G96 – Mt. Lemmon Survey MPS 457458
2012 11 14.42771 04 46 31.54 +10 58 29.4 20.4 V G96 – Mt. Lemmon Survey MPS 457458
2012 12 09.36480 04 23 40.852 +10 07 04.24 20.9 w F51 – Pan-STARRS 1, Haleakala MPS 457458
2012 12 09.37966 04 23 40.002 +10 07 03.49 21.0 w F51 – Pan-STARRS 1, Haleakala MPS 457458
2012 12 09.39456 04 23 39.157 +10 07 02.65 21.1 w F51 – Pan-STARRS 1, Haleakala MPS 457458
2014 02 20.37727 12 07 59.42 +03 42 55.0 19.8 V 691 – Steward Observatory, Kitt Peak-Spacewatch MPS 501638
2014 02 20.39499 12 07 58.97 +03 43 04.3 19.7 V 691 – Steward Observatory, Kitt Peak-Spacewatch MPS 501638
2014 02 20.41271 12 07 58.56 +03 43 12.3 19.8 V 691 – Steward Observatory, Kitt Peak-Spacewatch MPS 501638
2014 02 25.10926 12 05 58.95 +04 21 40.9 20.1   J43 – Oukaimeden Observatory, Marrakech MPS 502400
2014 02 25.11958 12 05 58.64 +04 21 46.3 20.1   J43 – Oukaimeden Observatory, Marrakech MPS 502400
2014 02 25.12986 12 05 58.33 +04 21 51.6 20.3   J43 – Oukaimeden Observatory, Marrakech MPS 502400
2014 02 25.14009 12 05 57.99 +04 21 56.8 20.0   J43 – Oukaimeden Observatory, Marrakech MPS 502400
2014 02 26.09289 12 05 29.87 +04 30 11.0 20.1   J43 – Oukaimeden Observatory, Marrakech MPS 502400
2014 02 26.10314 12 05 29.55 +04 30 16.2 20.5   J43 – Oukaimeden Observatory, Marrakech MPS 502400
2014 02 26.11336 12 05 29.21 +04 30 21.4 20.3   J43 – Oukaimeden Observatory, Marrakech MPS 502400
2014 02 26.12360 12 05 28.87 +04 30 26.9 20.4   J43 – Oukaimeden Observatory, Marrakech MPS 502400
2014 02 26.55964 12 05 15.448 +04 34 16.62 19.7 w F51 – Pan-STARRS 1, Haleakala MPS 502400
2014 02 26.57187 12 05 15.040 +04 34 23.02 19.6 w F51 – Pan-STARRS 1, Haleakala MPS 502400
2014 02 26.58408 12 05 14.636 +04 34 29.39 19.7 w F51 – Pan-STARRS 1, Haleakala MPS 502400
2014 02 26.59634 12 05 14.227 +04 34 35.85 19.8 w F51 – Pan-STARRS 1, Haleakala MPS 502400
2014 02 27.48267 12 04 46.520 +04 42 25.54 19.6 w F51 – Pan-STARRS 1, Haleakala MPS 502400
2014 02 27.49491 12 04 46.095 +04 42 32.06 19.6 w F51 – Pan-STARRS 1, Haleakala MPS 502400
2014 02 27.50722 12 04 45.666 +04 42 38.62 19.7 w F51 – Pan-STARRS 1, Haleakala MPS 502400
2014 02 27.51956 12 04 45.236 +04 42 45.30 19.6 w F51 – Pan-STARRS 1, Haleakala MPS 502400
2014 02 28.41024 12 04 16.298 +04 50 43.16 19.9 w F51 – Pan-STARRS 1, Haleakala MPS 504062
2014 02 28.42273 12 04 15.859 +04 50 49.92 19.8 w F51 – Pan-STARRS 1, Haleakala MPS 504062
2014 02 28.43510 12 04 15.413 +04 50 56.64 19.9 w F51 – Pan-STARRS 1, Haleakala MPS 504062
2014 02 28.44748 12 04 14.971 +04 51 03.32 19.9 w F51 – Pan-STARRS 1, Haleakala MPS 504062
2014 03 04.29005 12 01 57.71 +05 26 24.2   691 – Steward Observatory, Kitt Peak-Spacewatch MPS 504062
2014 03 04.30775 12 01 56.99 +05 26 33.9   691 – Steward Observatory, Kitt Peak-Spacewatch MPS 504062
2014 03 04.32543 12 01 56.29 +05 26 44.0   691 – Steward Observatory, Kitt Peak-Spacewatch MPS 504062
2014 03 05.48969 12 01 11.303 +05 37 43.79 19.8 w F51 – Pan-STARRS 1, Haleakala MPS 504062
2014 03 05.50199 12 01 10.791 +05 37 50.79 19.7 w F51 – Pan-STARRS 1, Haleakala MPS 504062
2014 03 05.51437 12 01 10.273 +05 37 57.71 19.7 w F51 – Pan-STARRS 1, Haleakala MPS 504062
2014 03 05.52679 12 01 09.754 +05 38 04.80 19.7 w F51 – Pan-STARRS 1, Haleakala MPS 504062
2014 03 11.36197 11 57 06.38 +06 34 04.6 19.0 V G96 – Mt. Lemmon Survey MPS 505429
2014 03 11.36703 11 57 06.14 +06 34 07.5 18.9 V G96 – Mt. Lemmon Survey MPS 505429
2014 03 11.37211 11 57 05.91 +06 34 10.4 18.9 V G96 – Mt. Lemmon Survey MPS 505429
2014 03 11.37718 11 57 05.65 +06 34 13.1 18.8 V G96 – Mt. Lemmon Survey MPS 505429
2014 04 05.90302 11 38 22.90 +10 11 51.5 20.2   A14 – Les Engarouines Observatory MPS 509823
2014 04 05.91873 11 38 22.36 +10 11 58.2 20.0   A14 – Les Engarouines Observatory MPS 509823
2014 04 05.93446 11 38 21.79 +10 12 04.6 19.7   A14 – Les Engarouines Observatory MPS 509823
2014 04 07.26144 11 37 34.80 +10 20 20.3 19.7 V 703 – Catalina Sky Survey MPS 509823
2014 04 07.26946 11 37 34.50 +10 20 22.6 20.3 V 703 – Catalina Sky Survey MPS 509823
2014 04 07.27746 11 37 34.25 +10 20 23.9 19.5 V 703 – Catalina Sky Survey MPS 509823
2014 04 07.28546 11 37 33.96 +10 20 29.0 20.4 V 703 – Catalina Sky Survey MPS 509823
2014 06 18.28607 12 02 20.209 +07 44 03.75 20.7 w F51 – Pan-STARRS 1, Haleakala MPS 519973
2014 06 18.29814 12 02 21.012 +07 43 57.63 20.8 w F51 – Pan-STARRS 1, Haleakala MPS 519973
2014 06 18.31021 12 02 21.825 +07 43 51.59 20.7 w F51 – Pan-STARRS 1, Haleakala MPS 519973
2014 06 18.32227 12 02 22.623 +07 43 45.61 20.9 w F51 – Pan-STARRS 1, Haleakala MPS 519973
2015 06 27.57403 22 33 49.528 -06 40 12.13 21.2 w F51 – Pan-STARRS 1, Haleakala MPS 614591
2015 06 27.58324 22 33 49.627 -06 40 12.58 21.3 w F51 – Pan-STARRS 1, Haleakala MPS 614591
2015 06 27.59250 22 33 49.714 -06 40 13.00 21.2 w F51 – Pan-STARRS 1, Haleakala MPS 614591
2015 07 23.45958 22 30 37.980 -07 57 38.59 21.0 w F51 – Pan-STARRS 1, Haleakala MPS 617543
2015 07 23.47137 22 30 37.661 -07 57 42.19 20.9 w F51 – Pan-STARRS 1, Haleakala MPS 617543
2015 07 23.48316 22 30 37.314 -07 57 46.01 21.0 w F51 – Pan-STARRS 1, Haleakala MPS 617543
2015 07 23.49498 22 30 36.994 -07 57 49.72 20.8 w F51 – Pan-STARRS 1, Haleakala MPS 617543
2015 07 26.45171 22 29 13.116 -08 14 01.24 20.4 i F51 – Pan-STARRS 1, Haleakala MPS 618480
2015 07 26.46349 22 29 12.736 -08 14 05.23 20.3 i F51 – Pan-STARRS 1, Haleakala MPS 618480
2015 07 26.47528 22 29 12.372 -08 14 09.47 20.5 i F51 – Pan-STARRS 1, Haleakala MPS 618480
2015 07 26.48697 22 29 11.981 -08 14 13.39 20.3 i F51 – Pan-STARRS 1, Haleakala MPS 618480
2015 07 28.48900 22 28 08.620 -08 25 56.32 20.3 i F51 – Pan-STARRS 1, Haleakala MPS 618480
